Date,TemperatureHighF,TemperatureAvgF,TemperatureLowF,DewpointHighF,DewpointAvgF,DewpointLowF,HumidityHigh,HumidityAvg,HumidityLow,PressureMaxIn,PressureMinIn,WindSpeedMaxMPH,WindSpeedAvgMPH,GustSpeedMaxMPH,PrecipitationSumIn
2013-6-1,87,76,66,71,66,62,93,73,53,30.00,29.78,2,0,8,0.02
2013-6-2,81,73,64,69,64,59,94,76,51,29.84,29.76,2,0,7,0.07
2013-6-3,66,64,62,60,58,50,87,82,66,29.97,29.84,1,0,5,0.00
2013-6-4,66,59,53,52,50,48,85,72,53,30.15,30.11,0,0,0,0.00
2013-6-5,81,63,48,64,53,46,93,71,49,30.15,29.92,2,0,5,0.00
2013-6-6,70,65,62,66,62,58,95,91,75,29.93,29.76,1,0,6,1.06
2013-6-7,66,63,60,63,61,55,96,91,83,29.84,29.73,1,0,4,0.00
2013-6-8,71,62,56,60,56,53,93,81,60,30.11,29.84,1,0,4,0.00
2013-6-9,83,70,55,66,60,53,96,73,46,30.17,30.00,2,0,7,0.00
2013-6-10,77,69,64,71,66,63,95,91,78,30.01,29.76,2,0,5,0.98
2013-6-11,76,68,63,69,64,62,96,88,68,29.87,29.77,2,0,7,0.02
2013-6-12,84,72,61,71,66,60,97,83,53,29.90,29.72,2,0,8,0.00
2013-6-13,72,67,61,71,63,56,95,87,78,29.77,29.51,4,1,11,1.02
2013-6-14,72,63,55,61,57,53,95,82,59,30.05,29.77,2,0,5,0.00
2013-6-15,78,65,50,59,54,46,97,72,35,30.14,30.00,2,0,5,0.00
2013-6-16,74,67,62,69,64,57,95,89,79,30.02,29.89,1,0,4,0.37
2013-6-17,84,72,65,68,64,58,96,78,45,29.97,29.87,2,0,5,0.02
2013-6-18,78,68,62,68,63,60,94,86,65,29.94,29.82,0,0,3,0.02
2013-6-19,76,65,55,60,54,46,90,70,38,30.14,29.93,2,0,7,0.00
2013-6-20,81,66,49,61,54,47,96,70,37,30.23,30.14,2,0,5,0.00
2013-6-21,84,70,54,65,58,52,96,71,38,30.25,30.14,2,0,4,0.00
2013-6-22,86,72,58,73,65,56,96,79,59,30.19,30.05,2,0,5,0.00
2013-6-23,90,76,64,72,68,63,96,77,48,30.14,30.02,2,0,6,0.00
2013-6-24,90,77,65,72,67,63,96,75,46,30.11,29.97,2,0,7,0.00
2013-6-25,89,76,66,74,67,62,95,77,50,30.03,29.84,4,0,9,0.38
2013-6-26,82,72,65,72,68,64,96,86,62,29.97,29.80,2,0,5,1.76
2013-6-27,77,70,66,73,68,64,96,93,83,29.80,29.61,1,0,5,0.67
2013-6-28,77,68,62,71,65,61,97,91,74,29.64,29.47,3,0,5,0.21
2013-6-29,79,69,60,69,64,59,97,85,62,29.68,29.53,2,0,6,0.00
2013-6-30,84,70,60,71,65,59,97,86,57,29.83,29.67,3,0,9,0.29